Andover, NJ

4:04 AM EST on December 06, 2019 (GMT -0500)
Andover

Weather History for K12N - September, 2019

Change the Weather History Date:

Sunday, September 8, 2019

  Actual Average (WUND) Record (WUND)
Temperature  
Mean Temperature 64 °F -  
Max Temperature 79 °F - - (-1)
Min Temperature 54 °F - - (-1)
Growing Degree Days 14 (Base 50)    
Moisture  
Dew Point 58 °F    
Average Humidity 83    
Maximum Humidity 100    
Minimum Humidity 53    
Precipitation  
Precipitation 0.00 in - - ()
Sea Level Pressure  
Sea Level Pressure 30.05 in    
Wind  
Wind Speed 1 mph (SSW)    
Max Wind Speed 6 mph    
Max Gust Speed -    
Averages and records for this station are not official NWS values.
T = Trace of Precipitation, MM = Missing Value Source: NWS Daily Summary

Daily Weather History Graph

Daily Weather History Graph

Search for Another Location

Airport or City:

Astronomy

Sep. 08, 2019 Rise Set
Actual Time 6:32 AM EDT 7:20 PM EDT
Civil Twilight 6:04 AM EDT 7:48 PM EDT
Nautical Twilight 5:31 AM EDT 8:21 PM EDT
Astronomical Twilight 4:57 AM EDT 8:55 PM EDT
Moon 4:29 PM EDT (9/8) 1:07 AM EDT (9/8)
Length of Visible Light 13h 43m
Length of Day
12h 47m
Waxing Gibbous, 75% of the Moon is Illuminated
Sep 8
Waxing Gibbous
Sep 14
Full
Sep 21
Last Quarter
Sep 28
New
Oct 5
First Quarter

Hourly Weather History & Observations

Time (EDT) Temp. Dew Point Humidity Pressure Visibility Wind Dir Wind Speed Gust Speed Precip Events Conditions
12:54 AM 57.0 °F 55.0 °F 93% 29.95 in - Calm Calm - N/A   Unknown
1:54 AM 55.0 °F 54.0 °F 96% 29.96 in - SSW 3.5 mph - N/A   Unknown
2:54 AM 55.0 °F 54.0 °F 96% 29.96 in - SSW 3.5 mph - N/A   Unknown
3:54 AM 55.9 °F 55.9 °F 100% 29.95 in - Calm Calm - N/A   Unknown
4:54 AM 54.0 °F 54.0 °F 100% 29.96 in - Calm Calm - N/A   Unknown
5:54 AM 54.0 °F 53.1 °F 97% 29.99 in - Calm Calm - N/A   Unknown
6:54 AM 55.0 °F 54.0 °F 96% 30.03 in - Calm Calm - N/A   Unknown
7:54 AM 57.0 °F 55.9 °F 96% 30.04 in - Calm Calm - N/A   Unknown
8:54 AM 60.1 °F 57.9 °F 93% 30.06 in - Calm Calm - N/A   Unknown
9:54 AM 62.1 °F 57.9 °F 86% 30.06 in - Variable 3.5 mph - N/A   Unknown
10:54 AM 68.0 °F 59.0 °F 73% 30.06 in - Calm Calm - N/A   Unknown
11:54 AM 72.0 °F 59.0 °F 64% 30.06 in - Variable 3.5 mph - N/A   Unknown
12:54 PM 73.9 °F 57.9 °F 57% 30.05 in - Variable 4.6 mph - N/A   Unknown
1:54 PM 75.9 °F 57.9 °F 54% 30.04 in - Variable 3.5 mph - N/A   Unknown
2:54 PM 75.0 °F 57.0 °F 53% 30.04 in - NNE 3.5 mph - N/A   Unknown
3:54 PM 75.0 °F 57.9 °F 55% 30.04 in - Calm Calm - N/A   Unknown
4:54 PM 73.9 °F 59.0 °F 59% 30.04 in - SW 5.8 mph - N/A   Unknown
5:54 PM 71.1 °F 63.0 °F 75% 30.06 in - Calm Calm - N/A   Unknown
6:54 PM 68.0 °F 64.0 °F 87% 30.08 in - Calm Calm - N/A   Unknown
7:54 PM 64.9 °F 62.1 °F 90% 30.10 in - Calm Calm - N/A   Unknown
8:54 PM 64.0 °F 62.1 °F 93% 30.12 in - Calm Calm - N/A   Unknown
9:54 PM 63.0 °F 61.0 °F 93% 30.14 in - Calm Calm - N/A   Unknown
10:54 PM 63.0 °F 61.0 °F 93% 30.15 in - Calm Calm - N/A   Unknown
11:54 PM 63.0 °F 60.1 °F 90% 30.15 in - Calm Calm - N/A   Unknown